Date String (YYYY-MM-DD hh:mm:ss) UTC,Instrument flags,absolute air pressure of the measurement (hPa),sample flow rate (lpm),inlet stack bypass flow (lpm),air temperature of the measurement (°C),ambient temperature measured by the external sensor (°C),aerosol sample conditioner tube jacket temperature (°C),OPC LED temperature (°C),internal box temperature (°C),relative humidity of the measurement (%),span deviation,mass concentration of particles derived from Lorenz-Mie calculation of OPC scattering (μg/m³),mass concentration of particles derived from Lorenz-Mie calculation of OPC scattering (μg/m³),mass concentration of particles derived from Lorenz-Mie calculation of OPC scattering (μg/m³)
DateTimeUTC,F1_M11,P_M11,Q1_M11,Q2_M11,T1_M11,T2_M11,T3_M11,T4_M11,T5_M11,U1_M11,ZSPAN_M11,X2_M11,X0_M11,X1_M11
2024-04-27 15:00:00,SystemResetWarning,0823.8,5.00,000.00,022.1,021.4,000.0,030.7,024.0,025.2,0000.0,0003.49,0006.14,0003.01
2024-04-27 15:01:00,SystemResetWarning,0823.8,5.00,000.00,022.1,021.4,000.0,030.7,024.0,025.3,0000.0,0003.49,0006.25,0002.99
2024-04-27 15:02:00,SystemResetWarning,0823.8,5.00,000.00,022.1,021.4,000.0,030.7,024.0,025.3,0000.0,0003.52,0006.40,0002.98
2024-04-27 15:03:00,SystemResetWarning,0823.8,5.02,000.00,022.1,021.4,000.0,030.7,024.0,025.3,0000.0,0003.53,0006.42,0002.99
2024-04-27 15:04:00,SystemResetWarning,0823.8,4.99,000.00,022.1,021.4,000.0,030.7,024.0,025.4,0000.0,0003.58,0006.60,0003.01
2024-04-27 15:05:00,SystemResetWarning,0823.8,4.99,000.00,022.1,021.4,000.0,030.7,024.0,025.4,0000.0,0003.59,0006.46,0003.04
2024-04-27 15:06:00,SystemResetWarning,0823.8,5.00,000.00,022.1,021.4,000.0,030.7,024.0,025.4,0000.0,0003.57,0006.22,0003.06
2024-04-27 15:07:00,SystemResetWarning,0823.8,5.00,000.00,022.1,021.4,000.0,030.7,024.0,025.5,0000.0,0003.60,0006.39,0003.09
2024-04-27 15:08:00,SystemResetWarning,0823.8,5.00,000.00,022.1,021.4,000.0,030.7,024.0,025.5,0000.0,0003.62,0006.46,0003.11
2024-04-27 15:09:00,SystemResetWarning,0823.8,5.01,000.00,022.1,021.4,000.0,030.7,024.0,025.5,0000.0,0003.66,0006.65,0003.13
2024-04-27 15:10:00,SystemResetWarning,0823.8,5.00,000.00,022.1,021.4,000.0,030.7,024.0,025.6,0000.0,0003.70,0006.77,0003.16
2024-04-27 15:11:00,SystemResetWarning,0823.9,4.99,000.00,022.1,021.4,000.0,030.7,024.0,025.6,0000.0,0003.75,0006.89,0003.19
2024-04-27 15:12:00,SystemResetWarning,0823.9,4.99,000.00,022.1,021.4,000.0,030.7,024.0,025.7,0000.0,0003.78,0006.92,0003.22
2024-04-27 15:13:00,SystemResetWarning,0823.8,5.00,000.00,022.1,021.4,000.0,030.7,024.0,025.8,0000.0,0003.79,0006.95,0003.23
2024-04-27 15:14:00,SystemResetWarning,0823.8,5.01,000.00,022.1,021.4,000.0,030.7,024.0,025.9,0000.0,0003.80,0007.05,0003.24
2024-04-27 15:15:00,SystemResetWarning,0823.8,5.00,000.00,022.1,021.4,000.0,030.7,024.0,025.9,0000.0,0003.78,0006.88,0003.25
2024-04-27 15:16:00,SystemResetWarning,0823.8,4.99,000.00,022.1,021.4,000.0,030.7,024.0,026.0,0000.0,0003.80,0007.03,0003.26
2024-04-27 15:17:00,SystemResetWarning,0823.8,4.99,000.00,022.1,021.5,000.0,030.7,024.0,026.0,0000.0,0003.85,0007.20,0003.29
2024-04-27 15:18:00,SystemResetWarning,0823.8,4.99,000.00,022.1,021.5,000.0,030.7,024.0,026.1,0000.0,0003.88,0007.15,0003.31
2024-04-27 15:19:00,SystemResetWarning,0823.8,5.02,000.00,022.1,021.5,000.0,030.7,024.0,026.2,0000.0,0003.95,0007.37,0003.33
2024-04-27 15:20:00,SystemResetWarning,0823.8,4.99,000.00,022.1,021.5,000.0,030.7,024.0,026.3,0000.0,0003.97,0007.38,0003.36
2024-04-27 15:21:00,SystemResetWarning,0823.8,4.99,000.00,022.1,021.5,000.0,030.7,024.0,026.4,0000.0,0004.01,0007.47,0003.37
2024-04-27 15:22:00,SystemResetWarning,0823.8,5.00,000.00,022.1,021.5,000.0,030.7,024.0,026.5,0000.0,0004.04,0007.53,0003.37
2024-04-27 15:23:00,SystemResetWarning,0823.8,5.01,000.00,022.1,021.5,000.0,030.7,024.0,026.4,0000.0,0004.03,0007.46,0003.37
2024-04-27 15:24:00,SystemResetWarning,0823.8,5.01,000.00,022.1,021.5,000.0,030.7,024.0,026.2,0000.0,0004.01,0007.45,0003.38
2024-04-27 15:25:00,SystemResetWarning,0823.8,4.99,000.00,022.1,021.5,000.0,030.7,024.0,026.0,0000.0,0003.99,0007.39,0003.38
2024-04-27 15:26:00,SystemResetWarning,0823.8,4.99,000.00,022.1,021.5,000.0,030.7,024.0,025.9,0000.0,0004.01,0007.42,0003.38
2024-04-27 15:27:00,SystemResetWarning,0823.8,4.99,000.00,022.1,021.4,000.0,030.7,024.0,025.9,0000.0,0004.00,0007.39,0003.38
2024-04-27 15:28:00,SystemResetWarning,0823.8,5.01,000.00,022.1,021.4,000.0,030.7,024.0,025.7,0000.0,0003.99,0007.39,0003.36
2024-04-27 15:29:00,SystemResetWarning,0823.8,5.01,000.00,022.1,021.4,000.0,030.7,023.9,025.8,0000.0,0003.99,0007.45,0003.33
2024-04-27 15:30:00,SystemResetWarning,0823.8,4.99,000.00,022.1,021.4,000.0,030.7,023.9,025.7,0000.0,0003.94,0007.31,0003.31
2024-04-27 15:31:00,SystemResetWarning,0823.8,4.99,000.00,022.1,021.4,000.0,030.7,023.9,025.7,0000.0,0003.89,0007.10,0003.27
2024-04-27 15:32:00,SystemResetWarning,0823.8,5.00,000.00,022.1,021.4,000.0,030.7,023.9,025.6,0000.0,0003.82,0006.80,0003.23
2024-04-27 15:33:00,SystemResetWarning,0823.8,5.01,000.00,022.1,021.4,000.0,030.7,023.9,025.7,0000.0,0003.76,0006.53,0003.20
2024-04-27 15:34:00,SystemResetWarning,0823.8,5.01,000.00,022.1,021.4,000.0,030.6,023.9,025.6,0000.0,0003.73,0006.54,0003.18
2024-04-27 15:35:00,SystemResetWarning,0823.8,4.99,000.00,022.1,021.3,000.0,030.6,023.9,025.6,0000.0,0003.71,0006.36,0003.15
2024-04-27 15:36:00,SystemResetWarning,0823.9,4.99,000.00,022.1,021.3,000.0,030.6,023.9,025.5,0000.0,0003.67,0006.20,0003.11
2024-04-27 15:37:00,SystemResetWarning,0823.9,5.00,000.00,022.1,021.3,000.0,030.6,023.9,025.6,0000.0,0003.63,0006.17,0003.06
2024-04-27 15:38:00,SystemResetWarning,0823.8,5.00,000.00,022.0,021.3,000.0,030.6,023.9,025.4,0000.0,0003.58,0006.00,0002.98
2024-04-27 15:39:00,SystemResetWarning,0823.8,5.01,000.00,022.0,021.3,000.0,030.6,023.8,025.4,0000.0,0003.50,0005.68,0002.91
2024-04-27 15:40:00,SystemResetWarning,0823.9,5.01,000.00,022.0,021.3,000.0,030.6,023.8,025.3,0000.0,0003.41,0005.28,0002.84
2024-04-27 15:41:00,SystemResetWarning,0823.9,5.01,000.00,022.0,021.2,000.0,030.6,023.8,025.3,0000.0,0003.34,0005.12,0002.74
2024-04-27 15:42:00,SystemResetWarning,0823.9,4.99,000.00,022.0,021.2,000.0,030.6,023.8,025.3,0000.0,0003.29,0004.97,0002.68
2024-04-27 15:43:00,SystemResetWarning,0823.9,4.99,000.00,022.0,021.2,000.0,030.6,023.8,025.3,0000.0,0003.23,0004.72,0002.63
2024-04-27 15:44:00,SystemResetWarning,0823.9,5.00,000.00,022.0,021.2,000.0,030.5,023.7,025.1,0000.0,0003.18,0004.58,0002.57
2024-04-27 15:45:00,SystemResetWarning,0824.0,5.02,000.00,022.0,021.2,000.0,030.5,023.8,025.2,0000.0,0003.14,0004.61,0002.50
2024-04-27 15:46:00,SystemResetWarning,0823.9,4.99,000.00,021.9,021.2,000.0,030.5,023.7,025.0,0000.0,0003.11,0004.52,0002.43
2024-04-27 15:47:00,SystemResetWarning,0823.9,4.99,000.00,021.9,021.2,000.0,030.5,023.7,024.9,0000.0,0003.08,0004.53,0002.38
2024-04-27 15:48:00,SystemResetWarning,0824.0,5.02,000.00,021.9,021.1,000.0,030.5,023.7,024.9,0000.0,0002.97,0004.26,0002.34
2024-04-27 15:49:00,SystemResetWarning,0824.0,5.00,000.00,021.9,021.1,000.0,030.5,023.7,024.9,0000.0,0002.89,0004.12,0002.30
2024-04-27 15:50:00,SystemResetWarning,0824.0,4.99,000.00,021.9,021.1,000.0,030.5,023.7,024.8,0000.0,0002.90,0004.17,0002.26
2024-04-27 15:51:00,SystemResetWarning,0824.0,5.00,000.00,021.9,021.1,000.0,030.5,023.7,024.8,0000.0,0002.86,0004.10,0002.25
2024-04-27 15:52:00,SystemResetWarning,0824.0,5.02,000.00,021.9,021.1,000.0,030.5,023.6,025.0,0000.0,0002.87,0004.18,0002.26
2024-04-27 15:53:00,SystemResetWarning,0824.0,4.99,000.00,021.9,021.1,000.0,030.4,023.6,024.9,0000.0,0002.85,0004.16,0002.26
2024-04-27 15:54:00,SystemResetWarning,0824.0,4.99,000.00,021.8,021.1,000.0,030.4,023.6,024.9,0000.0,0002.84,0004.17,0002.25
2024-04-27 15:55:00,SystemResetWarning,0824.0,4.99,000.00,021.8,021.1,000.0,030.4,023.6,024.8,0000.0,0002.80,0004.10,0002.24
2024-04-27 15:56:00,SystemResetWarning,0824.1,4.99,000.00,021.8,021.1,000.0,030.4,023.6,024.9,0000.0,0002.85,0004.18,0002.24
2024-04-27 15:57:00,SystemResetWarning,0824.1,5.01,000.00,021.8,021.1,000.0,030.4,023.6,025.0,0000.0,0002.84,0004.15,0002.24
2024-04-27 15:58:00,SystemResetWarning,0824.0,5.00,000.00,021.8,021.1,000.0,030.4,023.6,024.9,0000.0,0002.84,0004.10,0002.27
2024-04-27 15:59:00,SystemResetWarning,0824.0,5.00,000.00,021.8,021.1,000.0,030.4,023.6,024.8,0000.0,0002.84,0004.09,0002.30
